Time,TemperatureF,DewpointF,PressureIn,WindDirection,WindDirectionDegrees,WindSpeedMPH,WindSpeedGustMPH,Humidity,HourlyPrecipIn,Conditions,Clouds,dailyrainin,SoftwareType,DateUTC
2013-06-15 00:05:00,63.3,-38.9,29.86,SW,225,1.7,-999.0,1,-99.99,,,0.00,Acu-Link.com,2013-06-15 04:05:00,
2013-06-15 00:20:00,63.7,-38.6,29.87,SSW,202,4.2,-999.0,1,-99.99,,,0.00,Acu-Link.com,2013-06-15 04:20:00,
2013-06-15 00:36:00,63.3,-38.9,29.86,SSW,202,3.2,-999.0,1,-99.99,,,0.00,Acu-Link.com,2013-06-15 04:36:00,
2013-06-15 00:51:00,63.5,-38.7,29.86,SSW,202,3.7,-999.0,1,-99.99,,,0.00,Acu-Link.com,2013-06-15 04:51:00,
2013-06-15 01:06:00,63.5,-38.7,29.86,SSW,202,5.8,-999.0,1,-99.99,,,0.00,Acu-Link.com,2013-06-15 05:06:00,
2013-06-15 01:22:00,63.7,-38.6,29.86,SSW,202,3.7,-999.0,1,-99.99,,,0.00,Acu-Link.com,2013-06-15 05:22:00,
2013-06-15 01:37:00,63.5,-38.7,29.86,SSW,202,1.7,-999.0,1,-99.99,,,0.00,Acu-Link.com,2013-06-15 05:37:00,
2013-06-15 01:52:00,62.8,-39.2,29.87,SSW,202,0.0,-999.0,1,-99.99,,,0.00,Acu-Link.com,2013-06-15 05:52:00,
2013-06-15 02:07:00,62.4,-39.4,29.87,SSW,202,0.0,-999.0,1,-99.99,,,0.00,Acu-Link.com,2013-06-15 06:07:00,
2013-06-15 02:23:00,62.1,-39.6,29.87,SSW,202,2.2,-999.0,1,-99.99,,,0.00,Acu-Link.com,2013-06-15 06:23:00,
2013-06-15 02:38:00,61.9,-39.7,29.87,SSW,202,0.0,-999.0,1,-99.99,,,0.00,Acu-Link.com,2013-06-15 06:38:00,
2013-06-15 02:53:00,61.9,-39.7,29.87,SSW,202,0.0,-999.0,1,-99.99,,,0.00,Acu-Link.com,2013-06-15 06:53:00,
2013-06-15 03:08:00,61.3,-40.1,29.87,SSW,202,0.0,-999.0,1,-99.99,,,0.00,Acu-Link.com,2013-06-15 07:08:00,
2013-06-15 03:24:00,61.3,-40.1,29.87,SSW,202,2.2,-999.0,1,-99.99,,,0.00,Acu-Link.com,2013-06-15 07:24:00,
2013-06-15 03:39:00,62.2,-39.5,29.87,WNW,292,2.2,-999.0,1,-99.99,,,0.00,Acu-Link.com,2013-06-15 07:39:00,
2013-06-15 03:54:00,62.2,-39.5,29.87,WNW,292,5.8,-999.0,1,-99.99,,,0.00,Acu-Link.com,2013-06-15 07:54:00,
2013-06-15 04:10:00,62.2,-39.5,29.87,WNW,292,3.2,-999.0,1,-99.99,,,0.00,Acu-Link.com,2013-06-15 08:10:00,
2013-06-15 04:25:00,62.4,-39.4,29.88,WNW,292,3.7,-999.0,1,-99.99,,,0.00,Acu-Link.com,2013-06-15 08:25:00,
2013-06-15 04:40:00,62.4,-39.4,29.87,West,270,1.7,-999.0,1,-99.99,,,0.00,Acu-Link.com,2013-06-15 08:40:00,
2013-06-15 04:55:00,62.1,-39.6,29.88,WNW,292,3.2,-999.0,1,-99.99,,,0.00,Acu-Link.com,2013-06-15 08:55:00,
2013-06-15 05:10:00,62.1,-39.6,29.88,NW,315,0.0,-999.0,1,-99.99,,,0.00,Acu-Link.com,2013-06-15 09:10:00,
2013-06-15 05:26:00,61.9,-39.7,29.88,NW,315,0.0,-999.0,1,-99.99,,,0.00,Acu-Link.com,2013-06-15 09:26:00,
2013-06-15 05:42:00,61.7,-39.8,29.90,NW,315,0.0,-999.0,1,-99.99,,,0.00,Acu-Link.com,2013-06-15 09:42:00,
2013-06-15 05:57:00,61.7,-39.8,29.91,WNW,292,0.0,-999.0,1,-99.99,,,0.00,Acu-Link.com,2013-06-15 09:57:00,
2013-06-15 06:12:00,61.3,-40.1,29.91,WNW,292,1.1,-999.0,1,-99.99,,,0.00,Acu-Link.com,2013-06-15 10:12:00,
2013-06-15 06:27:00,61.5,-39.9,29.92,West,270,3.2,-999.0,1,-99.99,,,0.00,Acu-Link.com,2013-06-15 10:27:00,
2013-06-15 06:43:00,62.6,-39.3,29.93,NW,315,2.2,-999.0,1,-99.99,,,0.00,Acu-Link.com,2013-06-15 10:43:00,
2013-06-15 06:58:00,63.7,-38.6,29.93,NW,315,2.7,-999.0,1,-99.99,,,0.00,Acu-Link.com,2013-06-15 10:58:00,
2013-06-15 07:13:00,64.6,-38.1,29.94,WNW,292,2.7,-999.0,1,-99.99,,,0.00,Acu-Link.com,2013-06-15 11:13:00,
2013-06-15 07:28:00,65.7,-37.4,29.94,WNW,292,2.7,-999.0,1,-99.99,,,0.00,Acu-Link.com,2013-06-15 11:28:00,
2013-06-15 07:45:00,68.2,1.8,29.94,WSW,247,2.2,-999.0,7,-99.99,,,0.00,Acu-Link.com,2013-06-15 11:45:00,
2013-06-15 08:00:00,70.2,50.1,29.95,West,270,3.2,-999.0,49,-99.99,,,0.00,Acu-Link.com,2013-06-15 12:00:00,
2013-06-15 08:15:00,73.6,-32.7,29.95,West,270,2.2,-999.0,1,-99.99,,,0.00,Acu-Link.com,2013-06-15 12:15:00,
2013-06-15 08:30:00,73.9,-32.5,29.96,North,0,4.7,-999.0,1,-99.99,,,0.00,Acu-Link.com,2013-06-15 12:30:00,
2013-06-15 08:46:00,75.4,-31.6,29.97,NW,315,6.3,-999.0,1,-99.99,,,0.00,Acu-Link.com,2013-06-15 12:46:00,
2013-06-15 09:01:00,74.1,-32.4,29.97,WNW,292,3.7,-999.0,1,-99.99,,,0.00,Acu-Link.com,2013-06-15 13:01:00,
2013-06-15 09:17:00,75.4,-31.6,29.97,West,270,5.3,-999.0,1,-99.99,,,0.00,Acu-Link.com,2013-06-15 13:17:00,
2013-06-15 09:33:00,76.1,-31.2,29.97,NNW,337,7.3,-999.0,1,-99.99,,,0.00,Acu-Link.com,2013-06-15 13:33:00,
2013-06-15 09:49:00,76.3,-31.0,29.97,West,270,4.2,-999.0,1,-99.99,,,0.00,Acu-Link.com,2013-06-15 13:49:00,
2013-06-15 10:05:00,76.8,-30.7,29.97,West,270,4.7,-999.0,1,-99.99,,,0.00,Acu-Link.com,2013-06-15 14:05:00,
2013-06-15 10:21:00,77.2,-30.5,29.96,West,270,2.2,-999.0,1,-99.99,,,0.00,Acu-Link.com,2013-06-15 14:21:00,
2013-06-15 10:37:00,77.9,-30.1,29.97,West,270,3.2,-999.0,1,-99.99,,,0.00,Acu-Link.com,2013-06-15 14:37:00,
2013-06-15 10:53:00,78.4,-29.8,29.97,West,270,2.7,-999.0,1,-99.99,,,0.00,Acu-Link.com,2013-06-15 14:53:00,
2013-06-15 11:12:00,78.8,-29.6,29.97,NNW,337,2.7,-999.0,1,-99.99,,,0.00,Acu-Link.com,2013-06-15 15:12:00,
2013-06-15 11:27:00,78.6,-29.7,29.97,NNW,337,3.7,-999.0,1,-99.99,,,0.00,Acu-Link.com,2013-06-15 15:27:00,
2013-06-15 11:42:00,78.6,-29.7,29.96,NNW,337,3.2,-999.0,1,-99.99,,,0.00,Acu-Link.com,2013-06-15 15:42:00,
2013-06-15 11:57:00,79.5,-29.1,29.97,North,0,3.7,-999.0,1,-99.99,,,0.00,Acu-Link.com,2013-06-15 15:57:00,
2013-06-15 12:14:00,79.3,-29.3,29.96,NNW,337,2.2,-999.0,1,-99.99,,,0.00,Acu-Link.com,2013-06-15 16:14:00,
2013-06-15 12:33:00,80.6,-28.5,29.96,NNW,337,6.8,-999.0,1,-99.99,,,0.00,Acu-Link.com,2013-06-15 16:33:00,
2013-06-15 12:48:00,81.1,-28.2,29.96,WNW,292,6.3,-999.0,1,-99.99,,,0.00,Acu-Link.com,2013-06-15 16:48:00,
2013-06-15 13:03:00,79.7,-29.0,29.95,SW,225,4.7,-999.0,1,-99.99,,,0.00,Acu-Link.com,2013-06-15 17:03:00,
2013-06-15 13:18:00,77.7,-30.2,29.95,NNE,22,6.3,-999.0,1,-99.99,,,0.00,Acu-Link.com,2013-06-15 17:18:00,
2013-06-15 13:34:00,77.0,-30.6,29.95,ENE,67,4.7,-999.0,1,-99.99,,,0.00,Acu-Link.com,2013-06-15 17:34:00,
2013-06-15 13:51:00,77.5,-30.3,29.95,ENE,67,0.0,-999.0,1,-99.99,,,0.00,Acu-Link.com,2013-06-15 17:51:00,
2013-06-15 14:06:00,78.4,-29.8,29.94,ENE,67,3.7,-999.0,1,-99.99,,,0.00,Acu-Link.com,2013-06-15 18:06:00,
2013-06-15 14:23:00,77.5,-30.3,29.93,ENE,67,3.7,-999.0,1,-99.99,,,0.00,Acu-Link.com,2013-06-15 18:23:00,
2013-06-15 14:38:00,75.9,-31.3,29.93,ESE,112,8.3,-999.0,1,-99.99,,,0.00,Acu-Link.com,2013-06-15 18:38:00,
2013-06-15 14:53:00,76.1,-31.2,29.93,SSE,157,5.3,-999.0,1,-99.99,,,0.00,Acu-Link.com,2013-06-15 18:53:00,
2013-06-15 15:09:00,76.5,-30.9,29.93,South,180,4.7,-999.0,1,-99.99,,,0.00,Acu-Link.com,2013-06-15 19:09:00,
2013-06-15 15:24:00,77.4,-30.4,29.93,South,180,5.8,-999.0,1,-99.99,,,0.00,Acu-Link.com,2013-06-15 19:24:00,
2013-06-15 15:39:00,77.5,-30.3,29.93,SSE,157,4.2,-999.0,1,-99.99,,,0.00,Acu-Link.com,2013-06-15 19:39:00,
2013-06-15 15:57:00,77.0,-30.6,29.92,South,180,4.2,-999.0,1,-99.99,,,0.00,Acu-Link.com,2013-06-15 19:57:00,
2013-06-15 16:13:00,77.0,-30.6,29.93,SW,225,7.3,-999.0,1,-99.99,,,0.00,Acu-Link.com,2013-06-15 20:13:00,
2013-06-15 16:28:00,75.2,-31.7,29.93,SSW,202,4.2,-999.0,1,-99.99,,,0.00,Acu-Link.com,2013-06-15 20:28:00,
2013-06-15 16:43:00,75.4,-31.6,29.93,SE,135,7.8,-999.0,1,-99.99,,,0.00,Acu-Link.com,2013-06-15 20:43:00,
2013-06-15 16:58:00,75.9,-31.3,29.91,SE,135,4.2,-999.0,1,-99.99,,,0.00,Acu-Link.com,2013-06-15 20:58:00,
2013-06-15 17:14:00,78.3,-29.9,29.91,SE,135,2.2,-999.0,1,-99.99,,,0.00,Acu-Link.com,2013-06-15 21:14:00,
2013-06-15 17:29:00,78.3,-29.9,29.91,SE,135,3.7,-999.0,1,-99.99,,,0.00,Acu-Link.com,2013-06-15 21:29:00,
2013-06-15 17:44:00,78.8,-29.6,29.92,South,180,4.7,-999.0,1,-99.99,,,0.00,Acu-Link.com,2013-06-15 21:44:00,
2013-06-15 17:59:00,77.0,-30.6,29.91,SE,135,2.2,-999.0,1,-99.99,,,0.00,Acu-Link.com,2013-06-15 21:59:00,
2013-06-15 18:14:00,77.9,-30.1,29.91,ESE,112,3.7,-999.0,1,-99.99,,,0.00,Acu-Link.com,2013-06-15 22:14:00,
2013-06-15 18:29:00,78.1,-30.0,29.91,ESE,112,2.7,-999.0,1,-99.99,,,0.00,Acu-Link.com,2013-06-15 22:29:00,
2013-06-15 18:45:00,78.4,-29.8,29.91,ESE,112,2.2,-999.0,1,-99.99,,,0.00,Acu-Link.com,2013-06-15 22:45:00,
2013-06-15 19:00:00,80.2,-28.7,29.91,West,270,2.2,-999.0,1,-99.99,,,0.00,Acu-Link.com,2013-06-15 23:00:00,
2013-06-15 19:15:00,81.0,-28.2,29.92,West,270,3.7,-999.0,1,-99.99,,,0.00,Acu-Link.com,2013-06-15 23:15:00,
2013-06-15 19:31:00,81.9,-27.7,29.92,SW,225,3.7,-999.0,1,-99.99,,,0.00,Acu-Link.com,2013-06-15 23:31:00,
2013-06-15 19:46:00,81.5,-27.9,29.92,WSW,247,0.0,-999.0,1,-99.99,,,0.00,Acu-Link.com,2013-06-15 23:46:00,
2013-06-15 20:01:00,79.7,-29.0,29.92,SW,225,2.2,-999.0,1,-99.99,,,0.00,Acu-Link.com,2013-06-16 00:01:00,
2013-06-15 20:16:00,77.9,-30.1,29.92,WSW,247,0.0,-999.0,1,-99.99,,,0.00,Acu-Link.com,2013-06-16 00:16:00,
2013-06-15 20:32:00,76.3,-31.0,29.93,WSW,247,0.0,-999.0,1,-99.99,,,0.00,Acu-Link.com,2013-06-16 00:32:00,
2013-06-15 20:47:00,75.0,-31.8,29.92,WSW,247,0.0,-999.0,1,-99.99,,,0.00,Acu-Link.com,2013-06-16 00:47:00,
2013-06-15 21:02:00,74.5,-32.1,29.93,SW,225,1.1,-999.0,1,-99.99,,,0.00,Acu-Link.com,2013-06-16 01:02:00,
2013-06-15 21:17:00,73.8,-32.5,29.93,SW,225,0.0,-999.0,1,-99.99,,,0.00,Acu-Link.com,2013-06-16 01:17:00,
2013-06-15 21:33:00,73.4,-32.8,29.94,SW,225,1.7,-999.0,1,-99.99,,,0.00,Acu-Link.com,2013-06-16 01:33:00,
2013-06-15 21:48:00,72.9,-33.1,29.95,WSW,247,0.0,-999.0,1,-99.99,,,0.00,Acu-Link.com,2013-06-16 01:48:00,
2013-06-15 22:04:00,72.9,-33.1,29.95,WSW,247,1.1,-999.0,1,-99.99,,,0.00,Acu-Link.com,2013-06-16 02:04:00,
2013-06-15 22:19:00,72.5,-33.3,29.96,WSW,247,2.7,-999.0,1,-99.99,,,0.00,Acu-Link.com,2013-06-16 02:19:00,
2013-06-15 22:35:00,72.3,-33.4,29.95,WSW,247,3.2,-999.0,1,-99.99,,,0.00,Acu-Link.com,2013-06-16 02:35:00,
2013-06-15 22:50:00,72.3,-33.4,29.96,South,180,6.3,-999.0,1,-99.99,,,0.00,Acu-Link.com,2013-06-16 02:50:00,
2013-06-15 23:05:00,71.6,71.0,29.95,SW,225,2.7,-999.0,98,-99.99,,,0.00,Acu-Link.com,2013-06-16 03:05:00,
2013-06-15 23:20:00,71.1,70.5,29.95,South,180,2.7,-999.0,98,-99.99,,,0.00,Acu-Link.com,2013-06-16 03:20:00,
2013-06-15 23:35:00,71.1,70.5,29.96,South,180,3.7,-999.0,98,-99.99,,,0.00,Acu-Link.com,2013-06-16 03:35:00,
2013-06-15 23:50:00,70.9,70.3,29.96,South,180,4.7,-999.0,98,-99.99,,,0.00,Acu-Link.com,2013-06-16 03:50:00,